QPF
0.14 0.12 0.11 0.08 0.08 0.08 0.07 0.05 0.05 0.04 0.04 0.05 0.05 0.06 0.06 0.04 0.04 0.04 0.04 0.04 0.04 0.05 0.07 0.08 0.08 0.08 0.07 0.07 0.07 0.06 0.04 0.05 0.04 0.03 0.04 0.06 0.06 0.05 0.05 0.06 0.08 0.05 0.04
0.13 0.10 0.07 0.06 0.07 0.07 0.05 0.05 0.06 0.05 0.04 0.06 0.06 0.07 0.06 0.05 0.04 0.04 0.05 0.05 0.04 0.04 0.06 0.06 0.07 0.08 0.07 0.06 0.05 0.04 0.03 0.03 0.04 0.04 0.04 0.05 0.05 0.06 0.06 0.07 0.09 0.05 0.03
0.10 0.09 0.06 0.05 0.07 0.05 0.04 0.04 0.05 0.05 0.05 0.07 0.08 0.08 0.07 0.06 0.06 0.05 0.05 0.05 0.05 0.05 0.07 0.07 0.09 0.10 0.07 0.05 0.04 0.03 0.04 0.05 0.05 0.07 0.09 0.07 0.04 0.05 0.07 0.06 0.05 0.03 0.04
0.09 0.09 0.06 0.04 0.05 0.05 0.04 0.06 0.06 0.06 0.06 0.07 0.09 0.08 0.07 0.07 0.07 0.07 0.07 0.08 0.08 0.09 0.10 0.11 0.13 0.12 0.06 0.03 0.02 0.02 0.03 0.05 0.07 0.14 0.15 0.10 0.05 0.03 0.06 0.05 0.03 0.03 0.03
0.07 0.06 0.05 0.05 0.05 0.05 0.05 0.07 0.08 0.08 0.08 0.07 0.08 0.08 0.07 0.08 0.08 0.10 0.12 0.13 0.13 0.11 0.11 0.13 0.16 0.11 0.06 0.03 0.02 0.02 0.04 0.06 0.10 0.15 0.11 0.09 0.06 0.03 0.05 0.04 0.03 0.02 0.02
0.05 0.05 0.05 0.05 0.05 0.05 0.06 0.07 0.07 0.08 0.09 0.09 0.09 0.09 0.10 0.10 0.12 0.15 0.16 0.14 0.13 0.12 0.13 0.15 0.17 0.11 0.08 0.04 0.03 0.03 0.04 0.09 0.12 0.08 0.06 0.06 0.04 0.04 0.04 0.03 0.02 0.01 0.02
0.04 0.05 0.04 0.04 0.05 0.06 0.05 0.05 0.06 0.07 0.09 0.09 0.08 0.09 0.11 0.13 0.20 0.22 0.18 0.14 0.15 0.16 0.17 0.19 0.17 0.11 0.07 0.04 0.03 0.03 0.03 0.09 0.07 0.05 0.06 0.06 0.03 0.01 0.03 0.03 0.03 0.02 0.02
0.04 0.03 0.04 0.05 0.06 0.05 0.04 0.03 0.04 0.06 0.06 0.07 0.08 0.09 0.11 0.15 0.17 0.18 0.18 0.15 0.17 0.23 0.22 0.22 0.15 0.09 0.05 0.03 0.02 0.02 0.04 0.04 0.03 0.03 0.04 0.04 0.02 0.01 0.02 0.02 0.02 0.02 0.02
0.03 0.02 0.03 0.03 0.03 0.03 0.03 0.03 0.03 0.04 0.05 0.06 0.08 0.11 0.13 0.13 0.10 0.08 0.10 0.11 0.13 0.16 0.20 0.18 0.09 0.07 0.04 0.03 0.02 0.02 0.03 0.03 0.03 0.03 0.02 0.02 0.01 0.02 0.02 0.02 0.02 0.01 0.02
0.03 0.04 0.03 0.02 0.03 0.02 0.02 0.03 0.04 0.04 0.05 0.06 0.07 0.08 0.09 0.08 0.08 0.07 0.07 0.08 0.09 0.12 0.15 0.11 0.06 0.04 0.04 0.03 0.02 0.02 0.02 0.02 0.02 0.03 0.02 0.01 0.01 0.02 0.02 0.02 0.02 0.01 0.01
0.02 0.03 0.04 0.02 0.02 0.02 0.01 0.02 0.03 0.04 0.06 0.08 0.07 0.06 0.10 0.13 0.11 0.10 0.07 0.07 0.09 0.10 0.09 0.06 0.05 0.04 0.03 0.02 0.02 0.03 0.02 0.02 0.02 0.02 0.03 0.01 0.01 0.02 0.03 0.03 0.02 0.03 0.02
0.01 0.01 0.02 0.03 0.03 0.01 0.01 0.05 0.08 0.05 0.06 0.11 0.11 0.11 0.13 0.12 0.12 0.10 0.09 0.09 0.11 0.09 0.07 0.05 0.05 0.05 0.05 0.04 0.02 0.03 0.02 0.02 0.02 0.02 0.02 0.02 0.02 0.01 0.02 0.03 0.03 0.03 0.03
0.00 0.00 0.01 0.02 0.04 0.02 0.02 0.04 0.07 0.06 0.07 0.08 0.09 0.09 0.10 0.08 0.10 0.16 0.18 0.16 0.14 0.10 0.07 0.05 0.05 0.05 0.05 0.04 0.03 0.02 0.02 0.02 0.02 0.02 0.03 0.02 0.02 0.01 0.02 0.03 0.02 0.02 0.02
0.00 0.00 0.00 0.01 0.02 0.02 0.03 0.03 0.04 0.04 0.04 0.05 0.06 0.07 0.07 0.10 0.12 0.17 0.20 0.17 0.14 0.09 0.09 0.05 0.04 0.03 0.02 0.02 0.02 0.01 0.01 0.02 0.03 0.03 0.03 0.02 0.02 0.02 0.03 0.04 0.04 0.03 0.02
0.00 0.00 0.00 0.01 0.01 0.02 0.02 0.04 0.03 0.03 0.03 0.03 0.04 0.05 0.06 0.09 0.12 0.14 0.13 0.12 0.08 0.06 0.06 0.05 0.03 0.02 0.03 0.02 0.01 0.01 0.02 0.03 0.04 0.03 0.05 0.04 0.03 0.03 0.04 0.05 0.05 0.03 0.02
0.00 0.00 0.00 0.01 0.01 0.02 0.02 0.03 0.03 0.03 0.04 0.04 0.04 0.03 0.04 0.05 0.07 0.10 0.09 0.10 0.08 0.07 0.07 0.06 0.04 0.04 0.05 0.03 0.02 0.02 0.01 0.01 0.01 0.03 0.05 0.05 0.04 0.03 0.04 0.05 0.04 0.04 0.04
0.00 0.00 0.01 0.02 0.01 0.02 0.02 0.03 0.02 0.02 0.02 0.04 0.05 0.03 0.03 0.03 0.03 0.05 0.07 0.08 0.07 0.05 0.06 0.06 0.05 0.04 0.04 0.04 0.03 0.02 0.02 0.02 0.01 0.01 0.03 0.05 0.04 0.03 0.03 0.04 0.04 0.05 0.05
0.01 0.01 0.00 0.01 0.01 0.02 0.03 0.04 0.03 0.03 0.03 0.04 0.04 0.05 0.03 0.03 0.03 0.06 0.05 0.05 0.05 0.05 0.07 0.08 0.06 0.06 0.06 0.05 0.05 0.04 0.03 0.05 0.03 0.02 0.03 0.05 0.05 0.03 0.03 0.03 0.03 0.03 0.04
0.00 0.00 0.00 0.01 0.01 0.01 0.02 0.03 0.04 0.04 0.04 0.04 0.04 0.05 0.05 0.05 0.05 0.06 0.06 0.06 0.04 0.04 0.06 0.05 0.08 0.09 0.08 0.06 0.05 0.05 0.03 0.05 0.04 0.02 0.02 0.03 0.04 0.04 0.05 0.03 0.03 0.02 0.03
0.00 0.00 0.01 0.01 0.01 0.02 0.03 0.03 0.04 0.04 0.04 0.04 0.05 0.06 0.05 0.05 0.05 0.07 0.10 0.08 0.07 0.07 0.07 0.07 0.09 0.08 0.07 0.07 0.03 0.06 0.05 0.04 0.03 0.04 0.02 0.01 0.05 0.06 0.05 0.04 0.06 0.05 0.05
0.01 0.01 0.01 0.02 0.02 0.04 0.04 0.05 0.06 0.06 0.05 0.05 0.06 0.05 0.04 0.04 0.05 0.07 0.09 0.10 0.09 0.08 0.07 0.07 0.09 0.09 0.09 0.07 0.08 0.09 0.07 0.07 0.08 0.05 0.03 0.03 0.03 0.04 0.04 0.06 0.11 0.13 0.11
0.02 0.01 0.01 0.03 0.02 0.02 0.03 0.04 0.05 0.06 0.05 0.06 0.06 0.06 0.03 0.03 0.04 0.06 0.11 0.10 0.11 0.11 0.11 0.09 0.10 0.10 0.10 0.09 0.12 0.15 0.14 0.14 0.11 0.05 0.06 0.04 0.04 0.05 0.05 0.05 0.11 0.15 0.14
0.01 0.02 0.02 0.02 0.02 0.02 0.03 0.04 0.05 0.07 0.07 0.09 0.08 0.08 0.05 0.03 0.04 0.06 0.09 0.10 0.12 0.11 0.12 0.12 0.11 0.12 0.13 0.11 0.09 0.12 0.15 0.17 0.13 0.09 0.06 0.04 0.06 0.09 0.05 0.06 0.10 0.12 0.15
0.02 0.02 0.02 0.02 0.03 0.04 0.05 0.06 0.06 0.07 0.09 0.10 0.08 0.08 0.08 0.06 0.05 0.06 0.08 0.10 0.11 0.11 0.12 0.09 0.10 0.13 0.14 0.12 0.11 0.10 0.10 0.12 0.15 0.18 0.14 0.09 0.09 0.07 0.06 0.08 0.10 0.11 0.14
0.02 0.01 0.01 0.01 0.02 0.04 0.05 0.07 0.07 0.07 0.08 0.08 0.07 0.09 0.11 0.11 0.09 0.07 0.09 0.12 0.12 0.10 0.11 0.10 0.13 0.12 0.12 0.10 0.09 0.09 0.12 0.13 0.12 0.15 0.18 0.18 0.17 0.10 0.06 0.08 0.09 0.09 0.11
0.01 0.00 0.00 0.00 0.01 0.02 0.03 0.04 0.06 0.06 0.07 0.08 0.08 0.09 0.09 0.09 0.09 0.10 0.12 0.13 0.11 0.11 0.12 0.12 0.13 0.12 0.10 0.11 0.11 0.10 0.13 0.12 0.13 0.14 0.14 0.16 0.17 0.10 0.07 0.07 0.07 0.10 0.12
MSLP
1010.74 1010.62 1010.59 1010.67 1010.82 1011.00 1011.13 1011.18 1011.14 1011.00 1010.81 1010.62 1010.48 1010.40 1010.40 1010.46 1010.55 1010.64 1010.70 1010.74 1010.76 1010.79 1010.84 1010.93 1011.07 1011.25 1011.44 1011.62 1011.78 1011.92 1012.06 1012.21 1012.41 1012.67 1013.00 1013.39 1013.79 1014.19 1014.53 1014.81 1015.03 1015.19 1015.34
1010.98 1010.95 1011.00 1011.13 1011.29 1011.43 1011.49 1011.46 1011.33 1011.14 1010.94 1010.78 1010.71 1010.73 1010.84 1010.99 1011.15 1011.28 1011.36 1011.38 1011.37 1011.36 1011.38 1011.44 1011.56 1011.72 1011.88 1012.03 1012.16 1012.27 1012.38 1012.52 1012.72 1013.00 1013.34 1013.74 1014.15 1014.53 1014.85 1015.10 1015.28 1015.42 1015.56
1011.20 1011.26 1011.39 1011.56 1011.74 1011.86 1011.89 1011.80 1011.62 1011.39 1011.19 1011.06 1011.04 1011.14 1011.32 1011.54 1011.75 1011.90 1011.97 1011.97 1011.94 1011.90 1011.90 1011.95 1012.06 1012.19 1012.34 1012.47 1012.57 1012.65 1012.73 1012.86 1013.05 1013.34 1013.69 1014.09 1014.50 1014.87 1015.18 1015.41 1015.57 1015.70 1015.84
1011.33 1011.46 1011.67 1011.92 1012.14 1012.29 1012.31 1012.21 1012.01 1011.78 1011.58 1011.48 1011.50 1011.64 1011.86 1012.11 1012.32 1012.47 1012.52 1012.50 1012.45 1012.40 1012.40 1012.45 1012.55 1012.69 1012.81 1012.91 1012.98 1013.03 1013.09 1013.20 1013.38 1013.67 1014.03 1014.44 1014.84 1015.21 1015.51 1015.73 1015.89 1016.03 1016.19
1011.32 1011.53 1011.82 1012.15 1012.45 1012.66 1012.73 1012.67 1012.50 1012.29 1012.11 1012.03 1012.06 1012.21 1012.43 1012.66 1012.86 1012.97 1013.00 1012.97 1012.91 1012.87 1012.87 1012.94 1013.05 1013.17 1013.28 1013.35 1013.38 1013.39 1013.42 1013.50 1013.68 1013.96 1014.33 1014.75 1015.16 1015.53 1015.82 1016.05 1016.22 1016.38 1016.56
1011.19 1011.46 1011.84 1012.27 1012.67 1012.97 1013.12 1013.13 1013.02 1012.85 1012.71 1012.64 1012.67 1012.80 1012.99 1013.18 1013.33 1013.41 1013.41 1013.37 1013.31 1013.28 1013.31 1013.39 1013.51 1013.63 1013.72 1013.75 1013.73 1013.70 1013.69 1013.76 1013.93 1014.22 1014.59 1015.02 1015.45 1015.82 1016.12 1016.34 1016.52 1016.68 1016.88
1011.01 1011.32 1011.77 1012.28 1012.78 1013.18 1013.44 1013.53 1013.50 1013.39 1013.28 1013.23 1013.26 1013.36 1013.50 1013.64 1013.74 1013.78 1013.76 1013.71 1013.66 1013.66 1013.71 1013.81 1013.93 1014.03 1014.08 1014.07 1014.00 1013.93 1013.89 1013.94 1014.11 1014.42 1014.82 1015.27 1015.71 1016.09 1016.38 1016.60 1016.76 1016.93 1017.13
1010.83 1011.17 1011.67 1012.25 1012.83 1013.32 1013.66 1013.84 1013.87 1013.82 1013.75 1013.71 1013.73 1013.80 1013.91 1014.00 1014.06 1014.07 1014.04 1013.99 1013.96 1013.98 1014.05 1014.15 1014.26 1014.34 1014.35 1014.29 1014.18 1014.07 1014.01 1014.06 1014.26 1014.59 1015.02 1015.50 1015.96 1016.35 1016.64 1016.83 1016.97 1017.10 1017.28
1010.76 1011.10 1011.61 1012.23 1012.84 1013.38 1013.77 1014.00 1014.09 1014.09 1014.05 1014.03 1014.04 1014.10 1014.18 1014.25 1014.29 1014.29 1014.25 1014.22 1014.21 1014.24 1014.31 1014.41 1014.50 1014.54 1014.51 1014.40 1014.26 1014.13 1014.07 1014.15 1014.37 1014.75 1015.23 1015.75 1016.23 1016.63 1016.90 1017.07 1017.17 1017.25 1017.38
1010.83 1011.15 1011.65 1012.25 1012.86 1013.39 1013.79 1014.04 1014.15 1014.17 1014.15 1014.15 1014.17 1014.24 1014.32 1014.39 1014.43 1014.43 1014.41 1014.39 1014.40 1014.43 1014.50 1014.58 1014.64 1014.64 1014.57 1014.43 1014.27 1014.13 1014.10 1014.21 1014.48 1014.92 1015.46 1016.02 1016.54 1016.94 1017.21 1017.34 1017.39 1017.42 1017.49
1011.04 1011.34 1011.80 1012.35 1012.91 1013.39 1013.75 1013.97 1014.07 1014.09 1014.09 1014.10 1014.15 1014.24 1014.34 1014.44 1014.50 1014.53 1014.53 1014.53 1014.54 1014.57 1014.62 1014.67 1014.69 1014.65 1014.55 1014.39 1014.22 1014.11 1014.11 1014.26 1014.60 1015.10 1015.69 1016.31 1016.86 1017.28 1017.54 1017.66 1017.67 1017.64 1017.64
1011.35 1011.63 1012.04 1012.52 1012.99 1013.39 1013.68 1013.84 1013.91 1013.92 1013.92 1013.96 1014.04 1014.16 1014.30 1014.44 1014.54 1014.60 1014.62 1014.63 1014.64 1014.66 1014.69 1014.70 1014.68 1014.61 1014.48 1014.31 1014.16 1014.07 1014.11 1014.32 1014.71 1015.26 1015.90 1016.56 1017.14 1017.59 1017.87 1017.98 1017.98 1017.92 1017.87
1011.71 1011.96 1012.32 1012.72 1013.10 1013.41 1013.61 1013.71 1013.74 1013.73 1013.74 1013.80 1013.91 1014.07 1014.26 1014.43 1014.57 1014.66 1014.70 1014.72 1014.72 1014.72 1014.71 1014.69 1014.64 1014.54 1014.40 1014.24 1014.10 1014.05 1014.12 1014.37 1014.79 1015.36 1016.03 1016.71 1017.32 1017.79 1018.10 1018.25 1018.26 1018.20 1018.15
1012.03 1012.27 1012.59 1012.93 1013.23 1013.45 1013.58 1013.62 1013.61 1013.60 1013.61 1013.69 1013.83 1014.03 1014.25 1014.45 1014.62 1014.73 1014.79 1014.80 1014.79 1014.76 1014.72 1014.67 1014.59 1014.48 1014.34 1014.19 1014.08 1014.04 1014.13 1014.39 1014.80 1015.37 1016.02 1016.69 1017.31 1017.81 1018.16 1018.35 1018.42 1018.41 1018.39
1012.25 1012.51 1012.80 1013.10 1013.34 1013.51 1013.59 1013.60 1013.58 1013.56 1013.58 1013.67 1013.84 1014.05 1014.29 1014.51 1014.69 1014.81 1014.87 1014.88 1014.85 1014.81 1014.75 1014.68 1014.59 1014.47 1014.34 1014.21 1014.10 1014.07 1014.15 1014.37 1014.74 1015.25 1015.84 1016.47 1017.06 1017.57 1017.96 1018.22 1018.37 1018.44 1018.49
1012.36 1012.63 1012.93 1013.20 1013.42 1013.57 1013.64 1013.65 1013.63 1013.62 1013.65 1013.75 1013.92 1014.13 1014.36 1014.58 1014.76 1014.88 1014.94 1014.94 1014.91 1014.86 1014.80 1014.72 1014.64 1014.53 1014.41 1014.30 1014.20 1014.15 1014.19 1014.34 1014.62 1015.02 1015.50 1016.03 1016.56 1017.05 1017.47 1017.79 1018.04 1018.21 1018.36
1012.37 1012.66 1012.97 1013.24 1013.47 1013.62 1013.71 1013.74 1013.74 1013.75 1013.79 1013.89 1014.04 1014.23 1014.44 1014.64 1014.80 1014.91 1014.97 1014.98 1014.96 1014.92 1014.87 1014.81 1014.75 1014.67 1014.57 1014.47 1014.37 1014.29 1014.27 1014.33 1014.48 1014.73 1015.06 1015.46 1015.89 1016.32 1016.73 1017.10 1017.43 1017.71 1017.96
1012.31 1012.62 1012.94 1013.23 1013.47 1013.65 1013.77 1013.84 1013.87 1013.90 1013.94 1014.02 1014.14 1014.29 1014.46 1014.62 1014.76 1014.86 1014.93 1014.96 1014.98 1014.97 1014.96 1014.94 1014.92 1014.88 1014.81 1014.72 1014.61 1014.51 1014.42 1014.37 1014.38 1014.46 1014.63 1014.86 1015.16 1015.51 1015.88 1016.26 1016.64 1017.00 1017.35
1012.22 1012.54 1012.87 1013.17 1013.44 1013.65 1013.81 1013.91 1013.98 1014.01 1014.05 1014.10 1014.17 1014.26 1014.38 1014.50 1014.62 1014.73 1014.82 1014.89 1014.95 1015.01 1015.06 1015.10 1015.12 1015.13 1015.10 1015.04 1014.93 1014.80 1014.65 1014.51 1014.39 1014.32 1014.31 1014.38 1014.53 1014.76 1015.06 1015.41 1015.80 1016.21 1016.62
1012.11 1012.44 1012.77 1013.08 1013.36 1013.60 1013.79 1013.93 1014.01 1014.06 1014.08 1014.09 1014.10 1014.14 1014.20 1014.28 1014.39 1014.50 1014.63 1014.76 1014.89 1015.02 1015.14 1015.25 1015.34 1015.40 1015.42 1015.38 1015.30 1015.16 1014.98 1014.77 1014.55 1014.35 1014.20 1014.12 1014.13 1014.23 1014.43 1014.73 1015.09 1015.51 1015.94
1011.96 1012.30 1012.62 1012.94 1013.23 1013.49 1013.71 1013.88 1013.98 1014.03 1014.02 1013.99 1013.95 1013.93 1013.94 1013.99 1014.09 1014.22 1014.39 1014.59 1014.79 1015.00 1015.20 1015.37 1015.53 1015.64 1015.71 1015.72 1015.67 1015.55 1015.37 1015.13 1014.87 1014.59 1014.34 1014.15 1014.04 1014.02 1014.12 1014.34 1014.65 1015.03 1015.44
1011.72 1012.07 1012.40 1012.72 1013.03 1013.31 1013.56 1013.75 1013.87 1013.92 1013.90 1013.84 1013.76 1013.69 1013.66 1013.68 1013.77 1013.93 1014.14 1014.40 1014.67 1014.95 1015.21 1015.45 1015.66 1015.83 1015.94 1015.99 1015.99 1015.91 1015.76 1015.55 1015.29 1015.00 1014.71 1014.45 1014.26 1014.16 1014.18 1014.31 1014.54 1014.87 1015.24
1011.33 1011.71 1012.05 1012.39 1012.72 1013.03 1013.32 1013.55 1013.70 1013.77 1013.76 1013.68 1013.57 1013.46 1013.40 1013.40 1013.49 1013.66 1013.91 1014.20 1014.53 1014.86 1015.18 1015.46 1015.71 1015.91 1016.06 1016.16 1016.20 1016.18 1016.09 1015.94 1015.73 1015.48 1015.21 1014.95 1014.73 1014.59 1014.55 1014.61 1014.78 1015.04 1015.36
1010.74 1011.15 1011.53 1011.91 1012.28 1012.65 1012.99 1013.28 1013.48 1013.59 1013.60 1013.53 1013.41 1013.29 1013.20 1013.19 1013.26 1013.44 1013.70 1014.02 1014.38 1014.74 1015.08 1015.39 1015.65 1015.87 1016.05 1016.18 1016.27 1016.31 1016.30 1016.23 1016.10 1015.92 1015.72 1015.50 1015.32 1015.18 1015.12 1015.14 1015.27 1015.47 1015.75
1009.92 1010.38 1010.82 1011.25 1011.69 1012.14 1012.56 1012.93 1013.21 1013.39 1013.45 1013.41 1013.30 1013.17 1013.07 1013.03 1013.09 1013.25 1013.51 1013.83 1014.19 1014.56 1014.91 1015.22 1015.49 1015.71 1015.90 1016.06 1016.19 1016.29 1016.34 1016.36 1016.32 1016.24 1016.13 1015.99 1015.86 1015.77 1015.73 1015.76 1015.86 1016.04 1016.28
1008.92 1009.44 1009.94 1010.45 1010.97 1011.51 1012.03 1012.50 1012.88 1013.15 1013.27 1013.28 1013.20 1013.07 1012.96 1012.91 1012.94 1013.07 1013.30 1013.61 1013.95 1014.31 1014.65 1014.96 1015.23 1015.46 1015.65 1015.83 1015.98 1016.12 1016.24 1016.32 1016.37 1016.38 1016.36 1016.32 1016.27 1016.25 1016.26 1016.31 1016.43 1016.61 1016.83
Thickness
5787 5786 5785 5785 5785 5785 5784 5784 5783 5783 5782 5781 5781 5780 5779 5778 5776 5775 5774 5773 5772 5771 5770 5768 5767 5765 5764 5763 5761 5760 5758 5757 5755 5754 5752 5751 5749 5748 5747 5746 5745 5743 5741
5790 5786 5784 5783 5783 5783 5782 5782 5781 5781 5780 5779 5779 5778 5777 5776 5775 5774 5772 5771 5770 5769 5768 5766 5765 5763 5762 5761 5760 5758 5757 5756 5754 5753 5751 5749 5748 5747 5746 5745 5744 5742 5739
5791 5787 5784 5782 5781 5781 5780 5780 5780 5779 5778 5777 5777 5776 5775 5774 5773 5772 5770 5769 5768 5767 5766 5764 5763 5761 5760 5759 5758 5757 5756 5755 5754 5752 5751 5749 5746 5745 5745 5744 5742 5740 5738
5792 5787 5783 5781 5780 5780 5779 5779 5778 5778 5777 5776 5775 5774 5773 5772 5771 5770 5769 5767 5766 5765 5764 5763 5761 5760 5759 5758 5757 5756 5756 5754 5754 5753 5752 5749 5747 5744 5743 5742 5740 5739 5737
5793 5787 5782 5780 5779 5779 5778 5777 5777 5776 5775 5775 5773 5772 5771 5770 5769 5768 5766 5765 5764 5763 5763 5761 5760 5759 5758 5757 5757 5756 5755 5754 5754 5754 5752 5749 5746 5743 5742 5740 5739 5737 5736
5793 5787 5781 5779 5778 5777 5776 5776 5775 5775 5774 5773 5772 5771 5770 5769 5767 5766 5765 5764 5763 5762 5761 5760 5758 5757 5757 5756 5756 5755 5755 5755 5755 5754 5752 5749 5745 5743 5741 5740 5738 5737 5735
5794 5787 5781 5779 5778 5776 5775 5775 5775 5773 5773 5772 5771 5770 5769 5767 5766 5765 5763 5762 5761 5760 5760 5758 5757 5757 5756 5756 5756 5756 5755 5755 5756 5754 5751 5748 5745 5743 5741 5739 5738 5736 5735
5795 5788 5781 5778 5777 5776 5775 5773 5773 5772 5772 5771 5770 5769 5767 5766 5765 5763 5762 5761 5760 5759 5758 5758 5757 5756 5756 5756 5756 5756 5756 5757 5757 5755 5751 5747 5744 5742 5740 5739 5737 5736 5734
5797 5790 5784 5780 5777 5775 5774 5773 5772 5771 5770 5770 5768 5767 5765 5764 5763 5762 5762 5761 5760 5759 5758 5757 5757 5756 5756 5756 5757 5757 5757 5758 5757 5755 5752 5747 5744 5742 5740 5739 5737 5736 5734
5798 5794 5789 5784 5780 5777 5774 5772 5770 5769 5769 5768 5767 5766 5764 5763 5763 5762 5761 5760 5759 5759 5757 5757 5756 5756 5756 5757 5757 5757 5758 5759 5758 5756 5752 5747 5745 5743 5740 5739 5737 5736 5734
5797 5795 5793 5788 5784 5781 5777 5772 5770 5769 5768 5767 5766 5765 5764 5764 5763 5762 5761 5760 5759 5759 5758 5757 5757 5756 5757 5757 5758 5758 5759 5760 5760 5757 5752 5748 5746 5743 5741 5739 5737 5736 5734
5794 5795 5795 5792 5789 5785 5781 5775 5773 5772 5769 5768 5767 5766 5765 5766 5765 5763 5761 5760 5760 5759 5758 5758 5757 5756 5757 5759 5760 5760 5761 5762 5760 5756 5751 5749 5747 5744 5742 5740 5738 5736 5734
5797 5797 5796 5793 5791 5788 5784 5779 5777 5775 5772 5770 5769 5768 5767 5766 5765 5763 5761 5760 5760 5760 5760 5759 5758 5758 5760 5762 5763 5763 5764 5764 5761 5757 5752 5750 5748 5745 5743 5741 5739 5737 5735
5799 5798 5797 5794 5791 5789 5786 5783 5781 5777 5774 5773 5770 5770 5768 5767 5766 5765 5764 5763 5762 5763 5763 5763 5762 5763 5764 5765 5765 5766 5766 5765 5762 5757 5753 5751 5749 5746 5744 5742 5740 5738 5736
5800 5798 5797 5795 5791 5788 5786 5784 5783 5780 5778 5775 5772 5770 5769 5768 5767 5766 5765 5765 5764 5765 5765 5764 5764 5764 5764 5766 5766 5767 5766 5764 5762 5759 5754 5752 5750 5748 5745 5743 5741 5739 5738
5802 5800 5797 5794 5791 5788 5786 5784 5783 5781 5778 5776 5774 5772 5770 5769 5768 5766 5765 5765 5765 5765 5765 5764 5765 5765 5764 5765 5766 5765 5765 5765 5763 5760 5756 5753 5751 5749 5747 5744 5742 5740 5739
5806 5803 5799 5795 5792 5789 5787 5786 5785 5783 5780 5778 5775 5773 5772 5770 5768 5767 5766 5765 5765 5765 5765 5764 5764 5764 5764 5765 5765 5765 5765 5765 5764 5762 5758 5755 5752 5750 5748 5746 5744 5742 5740
5809 5804 5801 5800 5793 5790 5788 5787 5786 5784 5782 5779 5777 5775 5773 5771 5769 5767 5766 5765 5765 5766 5765 5764 5764 5763 5763 5763 5763 5764 5765 5765 5765 5763 5761 5758 5755 5752 5750 5747 5745 5743 5741
5812 5806 5802 5800 5795 5791 5789 5787 5785 5784 5782 5780 5778 5776 5774 5772 5770 5768 5766 5765 5766 5766 5765 5765 5764 5762 5761 5761 5762 5763 5764 5765 5765 5765 5763 5761 5758 5755 5753 5750 5747 5745 5743
5815 5810 5804 5801 5797 5793 5790 5787 5786 5784 5783 5781 5779 5776 5774 5772 5771 5769 5767 5765 5766 5765 5764 5764 5762 5762 5761 5761 5762 5763 5764 5765 5766 5765 5764 5763 5759 5758 5756 5753 5749 5746 5744
5816 5811 5806 5802 5798 5795 5791 5787 5783 5781 5782 5781 5780 5778 5776 5773 5772 5770 5768 5766 5766 5764 5763 5763 5762 5761 5760 5762 5758 5757 5761 5765 5765 5765 5764 5763 5761 5760 5758 5755 5751 5748 5746
5817 5813 5808 5804 5801 5797 5794 5791 5788 5785 5783 5783 5782 5780 5777 5775 5773 5772 5768 5767 5766 5765 5763 5763 5762 5759 5759 5762 5756 5751 5748 5753 5759 5765 5763 5762 5761 5760 5758 5756 5753 5750 5748
5820 5815 5812 5808 5804 5800 5797 5794 5791 5786 5783 5781 5779 5778 5778 5776 5774 5772 5770 5768 5766 5765 5763 5763 5762 5760 5756 5759 5760 5753 5746 5743 5750 5758 5760 5761 5760 5758 5757 5756 5753 5751 5749
5824 5821 5817 5812 5807 5803 5799 5794 5789 5783 5779 5779 5780 5779 5778 5777 5775 5773 5770 5768 5766 5766 5764 5764 5765 5762 5759 5755 5758 5760 5758 5755 5746 5744 5752 5756 5757 5756 5755 5754 5752 5750 5748
5831 5826 5821 5815 5809 5805 5801 5797 5791 5787 5784 5783 5782 5779 5777 5777 5775 5772 5771 5769 5767 5766 5765 5764 5764 5763 5761 5758 5756 5756 5756 5755 5753 5745 5741 5746 5749 5751 5752 5752 5750 5748 5746
5835 5830 5824 5817 5811 5807 5803 5799 5794 5789 5786 5783 5780 5777 5775 5775 5773 5772 5771 5769 5767 5766 5765 5764 5763 5762 5761 5759 5758 5757 5754 5751 5748 5746 5742 5741 5742 5746 5750 5750 5748 5746 5743